World > North America > United States > Mississippi > Church Hill

Hourly Church Hill, MS Regional Weather

Feedback E-mail the Weather

Quick WX

Church Hill, MS Weather Maps

°F °C°F °C
Church Hill Weather Map
UTC Time: 8/15/2022, 15:20
Your Time:

Church Hill, MS Regional Weather

Expires:202208151600;;084302
ASUS44 KJAN 151510
RWRMS 

MISSISSIPPI HOURLY WEATHER ROUNDUP
NATIONAL WEATHER SERVICE JACKSON MS
1000 AM CDT MON AUG 15 2022

NOTE: "FAIR: INDICATES FEW OR NO CLOUDS BELOW 12,000 FEET WITH NO
SIGNIFICANT WEATHER AND/OR OBSTRUCTIONS TO VISIBILITY.


MSZ059>079-151600-
SOUTH MISSISSIPPI
  
CITY           SKY/WX    TMP DP  RH WIND       PRES   REMARKS
BROOKHAVEN     FAIR      82  82 100 W7G13     30.02S HX  97           
HATTIESBURG    SUNNY     87  75  67 W5        29.99S HX  96           
LAUREL         SUNNY     86  75  69 W8        29.98S HX  95           
MCCOMB         SUNNY     84  74  71 NW9       30.00R HX  91           
NATCHEZ        SUNNY     85  76  74 VRB5      30.01S HX  94           
PINE BELT      SUNNY     86  77  74 VRB5      30.00S HX  97           
$$


SKY/WX - Weather  TMP - Temperature  DP - Dew Point  RH - Humidity
WIND - Wind Direction/Speed PRES - Barometric Pressure VSB - Visibility
WCI - Wind Chill Index E13G22 Wind - East Wind 13 mph/Gusts of 22 mph

Trending Headlines

Church Hill Radar Loop



Church Hill Quick Facts


National Two Day Weather Forecast


E-mail the Church Hill Weather Forecast

Voice your opinion or tell us about page issues...